Powrót do katalogu

COSMOS 2251 DEB

AktywnyLEO
NORAD 34879·DEBRIS·🇷🇺 Russia

Wystrzelony Jun 16, 1993 z Plesetsk Cosmodrome

Loading…

Następne Przeloty (najbliższe 24 godziny)

TLE

NieaktualneSource: Space-Track

Epoka: Sep 7, 2026, 08:31 UTC

1 34879U 93036ACS 26250.35493571  .00001438  00000-0  13135-2 0  9995
2 34879  73.9033 229.3659 0494129 262.3192  92.1550 13.39954280619370

Śledź COSMOS 2251 DEB w czasie rzeczywistym z AllMySat

Download on the App Store